Location: Home
(42.5358°N, 72.7383°W)
Time: 11:27:13
(UTC-05:00)

S-56A Canister/Altair - Pass Details

Date: 04 December 2021
Orbit: 634 x 2499 km, 38.9° (Epoch: 22 January)

Event Time Altitude Azimuth Distance (km) Brightness Sun altitude
Rises 02:06:36 0° 265° (W) 4,569 - -53.6°
Reaches altitude 10° 02:10:10 10° 263° (W) 3,286 - -53.0°
Maximum altitude 02:17:44 64° 184° (S) 1,035 - -51.7°
Drops below altitude 10° 02:22:56 10° 103° (ESE) 2,288 - -50.8°
Sets 02:25:03 0° 100° (E) 3,094 - -50.5°
